Location: Gälforsberget
(66.6500°N, 22.4167°E)
Time: 09:48:09
(UTC+00:00)

Cosmos 1340 Rocket - Pass Details

Date: 11 April 2026
Orbit: 484 x 512 km, 81.2° (Epoch: 19 May)

Event Time Altitude Azimuth Distance (km) Brightness Sun altitude
Rises 18:56:07 0° 209° (SSW) 2,555 6.1 -5.5°
Reaches altitude 10° 18:58:14 10° 212° (SSW) 1,676 5.3 -5.6°
Maximum altitude 19:01:53 66° 296° (WNW) 537 3.1 -5.9°
Drops below altitude 10° 19:05:34 10° 20° (NNE) 1,686 5.6 -6.2°
Sets 19:07:42 0° 23° (NNE) 2,573 6.5 -6.4°
